www.pogodaiklimat.ru

Погода и климат >> Архив погоды >> Индия >> Тамилнад >> Ченнаи


ПОГОДА в Ченнаи

  • Прогноз погоды в Ченнаи
  • Монитор погоды в Ченнаи

АРХИВ ПОГОДЫ в Ченнаи

Время (UTC), дата Ветер
(напр.,м/с)
 
Видим.   Явления Облачность Т
(С)
Тd
(С)
f
(%)
Тe
(С)
Тes
(С)
Комфортность P
(гПа)
Po
(гПа)
Тmin
(С)
Tmax
(С)
R
(мм)
R24
(мм)
S
(см)
00 20.05 ЮЗ 3 4000 м 5/4 600 м
[Sc Ci fib]
+29.0 +27.3 91 +47 +47 опасность
перегрева
1007.1 1006.4
03 20.05 ЮЗ 3 10 км 1/0
[Ci fib]
+31.6 +26.6 75 +49 +56 опасность
перегрева
1008.6 1007.9 +28.8 +35.6
06 20.05 Ю 2 10 км 4/1 600 м
[Sc Ci sp]
+35.8 +28.7 67 +58 +78 опасность
перегрева
1008.5 1007.8
09 20.05 ЮВ 3 10 км ясно +35.0 +28.4 69 +57 +69 опасность
перегрева
1006.7 1006.0
12 20.05 Ю 3 10 км ясно +32.0 +28.8 83 +55 +56 опасность
перегрева
1006.2 1005.5 +36.4
15 20.05 ЮВ 2 4000 м 1/1 600 м
[Sc diur, vesp]
+30.0 +27.2 85 +48 +48 опасность
перегрева
1007.1 1006.4
00 21.05 Ю 2 4000 м ясно +29.0 +25.3 80 +42 +42 опасность
перегрева
1006.1 1005.4
03 21.05 Ю 2 10 км 4/3 600 м
[Sc Ci fib]
+31.6 +26.0 72 +47 +53 опасность
перегрева
1008.2 1007.5 +28.6 +36.4
06 21.05 Ю 2 10 км 1/0
[Ci fib]
+34.8 +26.8 63 +52 +73 опасность
перегрева
1008.1 1007.4
09 21.05 ЮВ 4 10 км ясно +35.0 +26.1 60 +51 +61 опасность
перегрева
1006.6 1005.9
12 21.05 ЮВ 2 10 км 1/0
[Ci fib]
+32.5 +27.2 74 +51 +52 опасность
перегрева
1005.6 1005.1 +36.2
15 21.05 ЮВ 2 4000 м ясно +30.2 +28.0 88 +50 +50 опасность
перегрева
1006.6 1005.9
00 22.05 ЮЗ 1 4000 м 4/3 600 м
[Sc Ci fib]
+29.4 +27.5 90 +48 +48 опасность
перегрева
1007.3 1006.6
03 22.05 ЮЗ 2 10 км 3/0
[Ci fib]
+32.0 +26.7 74 +49 +57 опасность
перегрева
1007.5 1006.8 +29.0 +36.2
06 22.05 ЮВ 3 10 км 1/0
[Ci fib]
+35.0 +26.7 62 +52 +69 опасность
перегрева
1007.2 1006.5
09 22.05 Ю 3 10 км 1/0
[Ci fib]
+35.4 +27.0 62 +53 +66 опасность
перегрева
1005.9 1005.2
12 22.05 ЮВ 2 10 км 1/0
[Ci fib]
+32.8 +25.2 64 +47 +48 опасность
перегрева
1005.6 1004.9 +36.3
15 22.05 Ю 2 4000 м ясно +30.0 +26.7 83 +47 +47 опасность
перегрева
1006.5 1005.8
00 23.05 Ю 1 4000 м 5/4 600 м
[Sc Ci fib]
+29.6 +26.5 83 +45 +45 опасность
перегрева
1006.1 1005.4
03 23.05 ЮЗ 2 10 км 4/4 600 м
[Sc]
+32.4 +25.1 65 +46 +51 опасность
перегрева
1006.5 1005.8 +29.4 +36.3
06 23.05 ЮВ 2 10 км 4/4 600 м
[Sc]
+35.6 +25.2 55 +49 +62 опасность
перегрева
1006.5 1005.8
09 23.05 ЮВ 3 10 км 1/1 600 м
[Sc]
+36.6 +25.4 53 +51 +63 опасность
перегрева
1004.2 1003.5
12 23.05 ЮВ 2 10 км 1/0
[Ci fib]
+32.0 +27.3 76 +50 +52 опасность
перегрева
1002.7 1002.0 +36.8
15 23.05 ЮВ 3 4000 м 4/4 600 м
[Sc]
+30.2 +27.4 85 +48 +48 опасность
перегрева
1006.5 1005.8
00 24.05 штиль 0 50 км ?/? +29.6 +26.0 81 +44 +44 опасность
перегрева
1007.2 1006.5
03 24.05 ЮЗ 3 10 км 3/3 600 м
[Sc]
+32.4 +26.3 70 +49 +53 опасность
перегрева
1006.8 1006.1 +29.5 +36.7
06 24.05 ЮВ 3 10 км 3/3 600 м
[Sc]
+35.0 +27.9 67 +56 +69 опасность
перегрева
1006.9 1006.2
09 24.05 ЮВ 3 10 км 1/0
[Ci fib]
+34.4 +28.4 71 +56 +69 опасность
перегрева
1005.0 1004.3
12 24.05 ЮВ 3 10 км 1/0
[Ci fib]
+32.4 +27.5 75 +51 +52 опасность
перегрева
1004.3 1003.6 +35.8
15 24.05 Ю 2 4000 м 1/1 600 м
[Sc]
+29.8 +27.3 86 +47 +47 опасность
перегрева
1005.6 1004.9
00 25.05 Ю 1 4000 м ясно +29.6 +26.5 83 +45 +45 опасность
перегрева
1005.5 1004.8
03 25.05 ЮЗ 2 10 км 1/0
[Ci fib]
+32.0 +25.8 70 +47 +56 опасность
перегрева
1006.1 1005.4 +29.2 +35.8
06 25.05 ЮВ 2 10 км 1/0
[Ci fib]
+35.0 +26.7 62 +52 +75 опасность
перегрева
1005.4 1004.7
09 25.05 ЮВ 3 10 км ясно +35.2 +26.7 62 +53 +66 опасность
перегрева
1004.3 1003.6
12 25.05 Ю 3 10 км ясно +32.5 +27.5 75 +52 +53 опасность
перегрева
1003.4 1002.7 +35.7
15 25.05 Ю 2 4000 м ясно +31.0 +28.3 86 +52 +52 опасность
перегрева
1003.5 1002.8
00 26.05 ЮЗ 2 4000 м 1/0
[Ci fib]
+30.0 +27.2 85 +48 +48 опасность
перегрева
1004.5 1003.8
03 26.05 ЮЗ 2 10 км ясно +32.5 +26.2 69 +48 +56 опасность
перегрева
1004.1 1003.4 +29.6 +36.1
06 26.05 ЮВ 3 10 км ясно +36.2 +28.0 63 +57 +76 опасность
перегрева
1003.6 1002.9
09 26.05 ЮВ 2 10 км 1/1 600 м
[Sc]
+35.6 +28.2 66 +57 +72 опасность
перегрева
1002.4 1001.7
12 26.05 ЮВ 3 10 км 1/0
[Ci fib]
+32.4 +28.3 79 +54 +55 опасность
перегрева
1001.7 1001.0 +38.0
15 26.05 Ю 2 4000 м 1/0
[Ci fib]
+31.0 +28.6 87 +53 +53 опасность
перегрева
1003.0 1002.3

 

Местоположение метеостанции Ченнаи (Тамилнад, Индия): широта 13.07 долгота 80.20 высота над уровнем моря 7 м.

В архиве по умолчанию представлена погода в Ченнаи за последнюю неделю. Архивные данные за месяц целиком и за предыдущие месяцы, начиная с января 2011 года, Вы можете получить, выбрав интересующий диапазон дат из раскрывающегося списка и нажав кнопку "Ввод!".


*Определитесь, кто Вы:
робот инопланетянин человек

Внимание! Время в таблицах - всемирное. Для получения местного времени необходимо прибавить поправку, которая равна 5.5 ч.

Смотрите также архив погоды в соседних городах и на ближайших метеорологических станциях:

Погода в Ченнаи аэропорту (Тамилнад, Индия) (8 км)
Погода в Терутани (Тамилнад, Индия) (73 км)
Погода в Тирупати (Андхра-Прадеш, Индия) (95 км)
Погода в Веллоре (Тамилнад, Индия) (115 км)
Погода в Пондичерри (Пондичерри, Индия) (129 км)
Погода в Куддалоре (Тамилнад, Индия) (152 км)
Погода в Неллуру (Андхра-Прадеш, Индия) (155 км)
Погода в Парангипеттае (Тамилнад, Индия) (181 км)
Погода в Тирупатчере (Тамилнад, Индия) (189 км)
Погода в Маданапалле (Андхра-Прадеш, Индия) (191 км)

Пояснения к столбцам:

Ветер - указаны скорость ветра в м/с - средняя за 10 мин, порывы в срок и между сроками (в фигурных скобках) и направление, откуда дует ветер: С - северный, СВ - северо-восточный, В - восточный, ЮВ - юго-восточный, Ю - южный, ЮЗ - юго-западный, З - западный, СЗ - северо-западный.
Видимость - горизонтальная дальность видимости в метрах или километрах. При видимости от 1 до 10 км при отсутствии осадков обычно наблюдается дымка, при ухудшении видимости до 1 км и менее - туман. В сухую погоду видимость может ухудшаться дымом, пылью или мглою.
Явления - указаны атмосферные явления, наблюдавшиеся в срок или в последний час перед сроком; фигурными скобками обозначены явления, наблюдавшиеся между сроками (за 1-3 часа до срока); квадратными скобками обозначены град или гололедные отложения с указанием их диаметра в мм.
Облачность - указаны через наклонную черту общая и нижняя облачность в баллах и высота нижней границы облаков в метрах; квадратными скобками обозначены формы облаков: Ci - перистые, Cs - перисто-слоистые, Cc - перисто-кучевые, Ac - высококучевые, As - высокослоистые, Sc - слоисто-кучевые, Ns - слоисто-дождевые, Cu - кучевые, Cb - кучево-дождевые. Подробнее классификацию облаков см. в Атласе облаков (PDF).
T - Температура воздуха - температура, измеренная на высоте 2 м над землей.
Td - Температура точки росы - температура, при понижении до которой содержащийся в воздухе водяной пар достигнет насыщения.
f - Относительная влажность воздуха - влажноcть воздуха, измеренная на высоте 2 м над землей.
Te - Эффективная температура - температура, которую ощущает одетый по сезону человек в тени. Характеристика душности погоды. При расчете учитывается влияние влажности воздуха и скорости ветра на теплоощущения человека.
Tes - Эффективная температура на солнце - температура, которую ощущает человек, с поправкой на солнечный нагрев. Характеристика знойности погоды. Зависит от высоты солнца над горизонтом, облачности и скорости ветра. Ночью, в пасмурную погоду, а также при ветре 12 м/с и более поправка равна нулю.
P - Атмосферное давление - приведенное к уровню моря атмосферное давление.
Po - Атмосферное давление - измеренное на уровне метеостанции атмосферное давление.
Tmin - Минимальная температура - минимум температуры воздуха на высоте 2 м над землей.
Tmax - Максимальная температура - максимум температуры воздуха на высоте 2 м над землей.
R - Количество осадков - Количество выпавших осадков за период времени, мм. При наведении курсора мыши на число - период времени, за который выпало указанное количество осадков.
R24 - Количество осадков - Количество выпавших осадков за 24 часа, мм.
S - Снежный покров - Высота снежного покрова, см. При наведении курсора мыши на число - состояние снежного покрова и степень покрытия местности в баллах.